Juliana Airport, Sint Maarten

3:31 AM AST on January 21, 2018 (GMT -0400)
Princess Juliana International

Weather History for TNCM - May, 2013

Change the Weather History Date:

Thursday, May 23, 2013

  Actual Average Record
Temperature  
Mean Temperature 81 °F -  
Max Temperature 85 °F 85 °F 95 °F (2004)
Min Temperature 77 °F 77 °F 75 °F (1997)
Cooling Degree Days 16    
Growing Degree Days 31 (Base 50)    
Moisture  
Dew Point 71 °F    
Average Humidity 71    
Maximum Humidity 83    
Minimum Humidity 57    
Precipitation  
Precipitation 0.12 in 0.09 in - ()
Sea Level Pressure  
Sea Level Pressure 30.03 in    
Wind  
Wind Speed 12 mph ()    
Max Wind Speed 17 mph    
Max Gust Speed -    
Visibility 8.3 miles    
Events Rain    
Averages and records for this station are not official NWS values.
T = Trace of Precipitation, MM = Missing Value Source: Averaged Metar Reports

Daily Weather History Graph

Daily Weather History Graph

Search for Another Location

Airport or City:

Trip Planner

Search our weather history database for the weather conditions in past years. The results will help you decide how hot, cold, wet, or windy it might be!

Date:

Astronomy

May. 23, 2013 Rise Set
Actual Time 5:37 AM AST 6:41 PM AST
Civil Twilight 5:13 AM AST 7:05 PM AST
Nautical Twilight 4:45 AM AST 7:33 PM AST
Astronomical Twilight 4:17 AM AST 8:01 PM AST
Moon 5:18 PM AST (5/23) 4:04 AM AST (5/23)
Length of Visible Light 13h 51m
Length of Day
13h 04m
Waxing Gibbous, 97% of the Moon is Illuminated
May 23
Waxing Gibbous
May 25
Full
May 31
Last Quarter
Jun 8
New
Jun 16
First Quarter

Hourly Weather History & Observations

Time (AST) Temp. Heat Index Dew Point Humidity Pressure Visibility Wind Dir Wind Speed Gust Speed Precip Events Conditions
12:00 AM 78.8 °F - 69.8 °F 74% 30.04 in 6.2 mi East 12.7 mph - N/A   Mostly Cloudy
1:00 AM 78.8 °F - 69.8 °F 74% 30.04 in 6.2 mi East 12.7 mph - N/A   Mostly Cloudy
2:00 AM 79 °F - 70 °F 68% 30.02 in 16 mi East 11.5 mph - -   Partly Cloudy
2:00 AM 78.8 °F - 69.8 °F 74% 30.01 in 6.2 mi East 11.5 mph - N/A   Scattered Clouds
3:00 AM 78.8 °F - 69.8 °F 74% 30.01 in 6.2 mi ESE 11.5 mph - N/A   Scattered Clouds
4:00 AM 78.8 °F - 69.8 °F 74% 30.01 in 6.2 mi East 13.8 mph - N/A   Scattered Clouds
5:00 AM 79 °F - 69 °F 63% 30.01 in 16 mi East 15.0 mph - -   Partly Cloudy
5:00 AM 78.8 °F - 69.8 °F 74% 30.01 in 6.2 mi East 15.0 mph - N/A   Unknown
6:00 AM 78.8 °F - 68.0 °F 69% 30.01 in 6.2 mi East 11.5 mph - N/A   Scattered Clouds
7:00 AM 80.6 °F 83.9 °F 69.8 °F 70% 30.04 in 6.2 mi East 13.8 mph - N/A   Mostly Cloudy
8:00 AM 81 °F - 68 °F 57% 30.05 in 16 mi East 16.1 mph - -   Mostly Cloudy
8:00 AM 80.6 °F 83.2 °F 68.0 °F 65% 30.04 in 6.2 mi East 16.1 mph - N/A   Scattered Clouds
9:00 AM 82.4 °F 86.3 °F 69.8 °F 66% 30.06 in 6.2 mi East 13.8 mph - N/A   Scattered Clouds
10:00 AM 82.4 °F 86.3 °F 69.8 °F 66% 30.06 in 6.2 mi East 16.1 mph - N/A   Scattered Clouds
11:00 AM 83 °F - 70 °F 57% 30.07 in 16 mi ESE 16.1 mph - -   Mostly Cloudy
11:00 AM 84.2 °F 88.4 °F 69.8 °F 62% 30.06 in 6.2 mi ESE 16.1 mph - N/A   Mostly Cloudy
12:00 PM 82.4 °F 86.3 °F 69.8 °F 66% 30.06 in 6.2 mi East 16.1 mph - N/A   Mostly Cloudy
1:00 PM 84.2 °F 89.6 °F 71.6 °F 66% 30.04 in 6.2 mi East 13.8 mph - N/A   Mostly Cloudy
2:00 PM 83 °F - 71 °F 59% 30.04 in 19 mi East 13.8 mph - -   Partly Cloudy
2:00 PM 82.4 °F 86.3 °F 69.8 °F 66% 30.04 in 6.2 mi East 13.8 mph - N/A   Mostly Cloudy
3:00 PM 84.2 °F 89.6 °F 71.6 °F 66% 30.01 in 6.2 mi East 15.0 mph - N/A   Mostly Cloudy
3:33 PM 80.6 °F 84.6 °F 71.6 °F 74% 30.01 in 2.2 mi East 17.3 mph - N/A Rain Rain Showers
4:00 PM 77.0 °F - 71.6 °F 83% 30.01 in 6.2 mi ESE 11.5 mph - N/A   Mostly Cloudy
5:00 PM 80 °F - 72 °F 71% 30.02 in 16 mi ESE 15.0 mph - -   Partly Cloudy
5:00 PM 80.6 °F 84.6 °F 71.6 °F 74% 30.01 in 6.2 mi ESE 15.0 mph - N/A   Mostly Cloudy
6:00 PM 78.8 °F - 71.6 °F 78% 30.01 in 6.2 mi East 10.4 mph - N/A   Mostly Cloudy
7:00 PM 78.8 °F - 71.6 °F 78% 30.01 in 6.2 mi ESE 11.5 mph - N/A   Scattered Clouds
8:00 PM 78 °F - 72 °F 75% 30.06 in 12 mi ESE 17.3 mph - -   Partly Cloudy
8:00 PM 78.8 °F - 71.6 °F 78% 30.04 in 6.2 mi ESE 17.3 mph - N/A   Mostly Cloudy
9:00 PM 78.8 °F - 73.4 °F 83% 30.04 in 6.2 mi ESE 15.0 mph - N/A Rain Light Rain Showers
10:00 PM 78.8 °F - 71.6 °F 78% 30.06 in 6.2 mi East 15.0 mph - N/A   Scattered Clouds
11:00 PM 79 °F - 71 °F 71% 30.08 in 12 mi East 10.4 mph - -   Partly Cloudy
11:00 PM 78.8 °F - 73.4 °F 83% 30.04 in 6.2 mi ESE 17.3 mph - N/A Rain Light Rain Showers